TimeCDT,TemperatureF,Dew PointF,Humidity,Sea Level PressureIn,VisibilityMPH,Wind Direction,Wind SpeedMPH,Gust SpeedMPH,PrecipitationIn,Events,Conditions,WindDirDegrees,DateUTC
12:56 AM,50.0,37.9,63,30.18,10.0,North,8.1,-,N/A,,Overcast,10,2012-10-08 05:56:00
1:56 AM,50.0,37.9,63,30.19,9.0,NNE,6.9,-,N/A,,Mostly Cloudy,20,2012-10-08 06:56:00
2:56 AM,48.9,37.9,66,30.17,4.0,ENE,6.9,-,N/A,,Haze,70,2012-10-08 07:56:00
3:56 AM,48.9,38.8,68,30.19,10.0,NNW,4.6,-,N/A,,Partly Cloudy,330,2012-10-08 08:56:00
4:56 AM,47.8,41.0,77,30.19,10.0,NNE,4.6,-,0.00,Rain,Light Rain,30,2012-10-08 09:56:00
5:38 AM,46.4,44.6,93,30.21,10.0,North,3.5,-,0.02,Rain,Light Rain,350,2012-10-08 10:38:00
5:46 AM,46.4,44.6,93,30.22,10.0,NW,3.5,-,0.02,Rain,Light Rain,310,2012-10-08 10:46:00
5:56 AM,45.9,43.0,90,30.22,10.0,West,4.6,-,0.02,Rain,Light Rain,280,2012-10-08 10:56:00
6:56 AM,45.9,43.9,93,30.22,10.0,Calm,Calm,-,0.02,Rain,Light Rain,0,2012-10-08 11:56:00
7:56 AM,46.9,43.9,89,30.22,10.0,NE,3.5,-,0.00,,Mostly Cloudy,50,2012-10-08 12:56:00
8:56 AM,47.8,43.9,86,30.25,10.0,North,3.5,-,0.00,,Mostly Cloudy,10,2012-10-08 13:56:00
9:56 AM,50.0,43.9,79,30.23,10.0,Calm,Calm,-,N/A,,Mostly Cloudy,0,2012-10-08 14:56:00
10:56 AM,52.0,43.9,74,30.23,10.0,Calm,Calm,-,N/A,,Mostly Cloudy,0,2012-10-08 15:56:00
11:56 AM,55.9,41.9,59,30.22,10.0,NNE,4.6,-,N/A,,Partly Cloudy,30,2012-10-08 16:56:00
12:56 PM,59.0,43.0,55,30.20,10.0,Variable,4.6,-,N/A,,Mostly Cloudy,0,2012-10-08 17:56:00
1:56 PM,59.9,41.9,51,30.18,10.0,Variable,3.5,-,N/A,,Scattered Clouds,0,2012-10-08 18:56:00
3:56 PM,59.0,38.8,47,30.14,10.0,Calm,Calm,-,N/A,,Scattered Clouds,0,2012-10-08 20:56:00
4:56 PM,57.9,41.0,53,30.15,10.0,East,4.6,-,N/A,,Scattered Clouds,100,2012-10-08 21:56:00
5:56 PM,55.9,41.9,59,30.14,10.0,SSE,4.6,-,N/A,,Clear,150,2012-10-08 22:56:00
6:56 PM,52.9,45.0,74,30.14,10.0,SSE,4.6,-,N/A,,Clear,150,2012-10-08 23:56:00
7:56 PM,46.9,45.0,93,30.15,10.0,Calm,Calm,-,N/A,,Clear,0,2012-10-09 00:56:00
9:56 PM,43.0,43.0,100,30.17,10.0,Calm,Calm,-,N/A,,Clear,0,2012-10-09 02:56:00
10:56 PM,43.0,43.0,100,30.18,10.0,South,3.5,-,N/A,,Clear,170,2012-10-09 03:56:00
11:56 PM,41.9,41.9,100,30.17,9.0,Calm,Calm,-,N/A,,Clear,0,2012-10-09 04:56:00